User: anonymous   Login
Location: Unspecified
(0.0000°N, 0.0000°E)
Time: 19:56:02
(UTC+00:00)
Language:

Orbcomm A7 (FM11) - Orbit

View from above orbital plane
View from above orbital plane
View from above satellite
View from above satellite

Ground track
Ground track

The orbit data is extracted from the following two-line orbital elements,

1 25114U 97084C   24337.03070295  .00004571  00000-0  13632-2 0  9990
2 25114  45.0130 235.7806 0005525 308.0435  51.9916 14.44078968412996
Epoch (UTC): 02 December 2024 00:44:12
Eccentricity: 0.0005525
inclination: 45.0130°
perigee height: 741 km
apogee height: 749 km
right ascension of ascending node: 235.7806°
argument of perigee: 308.0435°
revolutions per day: 14.44078968
mean anomaly at epoch: 51.9916°
orbit number at epoch: 41299

The dashed part of the orbit path shows where the satellite is in the earth's shadow,  

DLR